Wetbulb
59.21 59.18 58.94 58.72 59.52 60.20 60.17 60.26 60.23 60.27 60.39 60.93 61.13 61.37 61.39 61.17 59.85 60.52 57.45 64.56 67.21 68.58 68.61 64.43 64.83 63.80 63.59 63.13 65.56 64.52 57.35 55.11 56.64 56.48 57.85 62.02 61.13 64.39 65.53 64.23 65.92 66.84 65.61 66.40 66.77
58.68 58.87 58.93 58.62 58.53 59.38 59.67 59.76 60.08 60.23 60.66 60.99 61.25 61.24 61.11 60.85 60.75 59.85 67.71 69.03 68.57 69.80 64.14 63.45 63.02 64.75 63.14 63.48 62.34 60.33 56.92 55.55 61.29 61.42 60.10 62.81 62.51 63.22 61.75 61.82 63.21 63.76 65.99 66.74 65.40
58.27 58.67 58.78 58.33 58.33 58.30 59.31 59.67 59.82 60.13 60.74 60.96 60.92 60.72 60.63 60.70 62.66 60.84 68.97 70.22 69.39 69.49 64.47 64.73 62.86 64.73 61.67 62.69 61.17 60.87 58.01 61.55 62.02 63.00 63.76 62.19 62.66 64.42 62.32 60.31 63.30 62.07 63.37 64.34 62.85
57.79 58.35 58.43 58.01 57.64 57.75 58.12 59.50 59.62 59.99 60.10 60.23 60.44 60.37 60.62 63.16 56.44 62.35 70.21 70.69 70.41 66.85 64.18 62.24 60.87 61.60 60.81 59.78 62.75 59.27 62.25 62.61 62.99 63.81 62.72 61.82 64.08 62.45 63.50 62.95 66.26 65.66 65.04 62.82 60.41
57.37 57.71 57.95 57.00 57.24 57.33 57.39 58.49 59.12 59.34 59.54 59.72 59.91 60.33 61.41 61.03 60.76 65.65 70.56 69.40 65.84 63.41 62.15 61.42 61.24 61.91 59.12 61.60 61.55 58.74 61.92 63.34 64.05 64.08 63.81 64.07 62.84 62.00 62.27 65.16 66.46 65.23 62.51 60.31 59.04
57.36 57.16 57.46 56.86 57.15 56.99 57.00 57.42 58.20 58.70 59.17 59.38 59.87 59.75 61.38 57.23 64.37 64.92 64.87 63.46 62.57 62.02 62.49 64.13 63.07 63.05 61.25 59.62 59.74 61.30 62.40 62.54 63.63 63.15 63.64 62.20 61.52 62.58 62.85 65.06 64.22 62.40 59.79 59.82 59.50
57.64 57.01 56.99 56.86 57.03 56.86 57.14 57.35 57.45 58.17 58.69 59.45 60.32 61.76 61.38 59.53 65.31 65.64 63.74 63.17 64.39 64.04 62.61 63.93 64.22 62.45 61.51 61.55 63.39 61.20 56.45 58.25 61.38 62.66 62.14 63.60 59.28 59.59 63.28 63.57 61.73 60.87 60.55 59.85 58.25
57.44 56.73 56.58 56.57 56.84 56.94 57.32 57.47 57.33 58.15 59.19 59.75 60.50 62.02 57.97 64.79 66.50 63.61 64.18 63.63 64.22 63.70 63.64 64.62 64.82 63.76 63.17 61.41 58.70 56.92 54.87 49.57 55.03 59.98 62.99 61.48 55.34 60.19 63.28 61.45 60.30 60.80 60.55 59.96 59.84
56.70 56.47 56.56 56.59 56.66 56.64 56.67 56.58 58.00 60.50 59.89 60.18 60.85 62.29 55.76 66.30 61.76 63.78 63.92 61.60 61.86 62.04 64.13 64.12 62.82 61.86 61.47 53.39 50.37 55.50 52.89 52.05 53.89 59.51 62.80 60.58 56.33 60.59 62.82 61.62 60.37 60.46 60.18 59.55 59.14
56.58 56.04 55.88 56.16 56.19 55.86 55.55 55.88 60.07 58.52 61.21 62.55 62.14 60.17 61.01 57.22 61.22 62.83 64.30 62.63 60.64 60.82 60.15 60.55 61.88 58.51 57.58 54.48 49.27 51.34 51.97 54.17 53.97 58.86 59.81 57.90 57.43 60.18 61.84 61.25 59.08 59.43 60.20 59.43 59.42
56.33 55.72 55.56 56.18 56.20 55.55 56.53 61.98 61.06 60.39 62.30 57.64 56.87 57.66 60.63 61.49 63.12 61.41 62.93 61.41 61.10 59.53 55.45 59.19 56.63 54.18 55.52 57.63 57.10 54.96 54.72 52.39 55.38 56.63 56.76 56.19 57.49 58.78 60.17 59.93 59.37 59.89 60.06 59.04 59.41
55.70 55.43 55.45 56.12 56.02 55.80 57.05 60.98 61.08 60.52 55.90 60.08 60.38 58.75 60.73 61.92 58.10 60.48 62.51 58.40 58.25 54.61 56.78 54.63 51.32 57.65 58.21 57.99 56.07 56.22 54.56 52.13 54.06 58.88 57.87 56.18 56.65 59.01 59.37 59.44 59.88 59.69 60.77 60.25 60.34
55.23 54.87 55.09 55.79 55.65 55.84 60.75 62.34 64.22 62.55 55.87 56.93 58.65 58.11 59.13 60.54 57.78 58.90 60.26 58.59 56.19 54.61 54.00 51.53 53.19 57.69 56.64 55.68 54.87 53.58 53.36 53.43 53.26 55.23 58.88 56.05 54.42 54.23 57.57 60.13 59.56 59.56 61.02 60.76 59.65
54.68 54.76 54.74 54.73 55.69 62.09 62.33 64.23 63.77 62.44 52.10 54.14 54.64 57.96 59.51 59.88 56.88 61.16 60.99 58.14 55.37 52.59 53.65 52.88 55.33 55.15 55.10 54.73 56.38 52.50 55.88 55.70 53.93 52.47 48.06 56.41 46.84 52.29 55.05 55.89 57.00 57.77 58.74 59.54 60.48
54.38 54.76 54.99 54.13 58.18 61.00 63.10 63.76 63.75 61.45 43.25 54.56 54.57 60.75 59.49 56.77 57.38 57.79 61.69 58.36 53.43 53.64 53.90 52.09 53.35 54.62 54.23 54.30 57.14 53.22 57.14 55.74 54.87 52.98 52.34 52.40 47.66 49.75 53.13 51.94 55.00 56.83 57.41 58.24 59.64
54.32 54.66 54.20 59.10 59.75 62.47 63.36 63.93 63.99 50.60 44.28 51.63 54.89 53.17 54.87 56.33 56.25 57.89 57.43 59.13 57.46 53.29 53.96 53.58 56.76 56.61 56.41 58.05 57.44 58.89 57.05 56.40 55.71 52.89 46.35 49.88 46.55 47.99 49.84 52.67 54.12 55.62 56.60 57.32 57.44
53.97 53.87 53.46 60.36 61.80 64.30 63.32 61.51 52.02 46.03 55.67 53.26 51.53 53.48 53.37 52.89 53.54 54.50 54.07 53.67 51.14 49.05 49.71 53.05 54.27 58.30 59.10 55.01 58.30 57.34 54.09 46.60 45.10 44.17 44.50 51.60 49.03 48.38 53.60 55.29 55.37 54.95 55.39 56.04 57.16
53.75 52.36 56.83 59.48 62.67 63.52 61.97 56.07 48.48 52.28 52.00 56.47 53.55 52.68 50.25 52.55 52.45 53.02 52.72 50.83 54.11 52.88 51.18 49.60 48.60 55.39 58.57 57.18 54.40 54.49 52.53 46.72 40.54 42.31 44.15 50.49 45.37 46.42 54.33 56.13 56.71 56.45 56.29 56.60 57.07
51.59 61.32 59.88 62.61 61.97 62.93 58.24 50.56 51.77 54.99 56.81 55.48 53.17 50.02 50.41 52.24 53.32 53.86 53.44 52.85 55.12 56.85 52.62 50.83 50.74 58.01 58.74 58.34 57.05 52.93 49.33 52.90 48.29 48.51 44.37 47.13 48.14 52.52 54.72 53.77 54.64 54.63 55.46 55.17 56.09
61.29 62.61 57.55 63.12 64.99 62.21 56.04 49.73 54.55 56.72 56.36 57.63 51.79 52.61 49.01 50.51 52.57 53.30 53.78 56.88 56.33 57.53 58.73 54.89 50.82 56.22 57.11 57.92 57.14 53.83 54.94 47.93 48.82 41.29 39.88 45.18 46.33 45.21 48.43 51.38 52.83 53.45 54.16 55.42 56.18
61.65 58.40 59.75 65.01 64.23 58.75 52.43 53.30 57.22 58.81 58.49 57.36 55.72 53.83 53.73 52.85 53.46 52.50 53.25 56.13 58.22 56.97 58.13 57.21 54.86 53.77 56.22 53.91 52.28 51.94 48.55 50.76 51.13 48.03 42.48 40.47 43.49 53.23 52.16 53.05 52.79 53.40 54.64 54.74 55.17
62.72 56.98 63.72 62.74 55.40 55.60 52.92 56.27 55.72 59.02 59.74 58.85 59.24 53.32 53.21 53.90 52.09 54.26 51.83 51.82 58.46 58.20 54.84 56.21 54.01 49.08 51.07 54.86 55.40 52.90 50.70 51.02 45.96 44.90 47.13 44.80 44.63 54.73 54.26 54.16 54.16 53.72 54.01 54.91 54.26
61.51 59.05 62.93 60.62 51.46 52.68 56.97 57.36 58.27 57.82 57.49 57.75 56.45 57.43 57.76 55.77 53.03 54.49 56.16 57.89 57.97 58.31 55.85 57.45 52.80 46.35 47.89 53.11 55.62 51.97 52.37 51.08 51.29 51.26 46.01 43.21 44.29 54.66 54.71 53.51 53.92 52.91 53.63 53.76 51.99
62.25 54.36 57.34 58.07 58.15 57.94 57.37 56.54 55.72 58.49 58.04 58.64 57.18 58.33 55.99 54.95 57.46 54.62 55.43 56.94 58.27 57.01 58.32 60.07 53.84 49.59 44.76 48.53 51.39 50.15 50.52 50.69 49.59 45.68 46.19 46.35 47.96 50.53 51.95 51.70 52.43 52.55 52.75 50.83 51.54
62.54 59.91 58.67 52.45 53.95 56.63 55.01 56.47 56.26 54.95 57.59 58.50 56.15 56.23 55.82 54.30 54.85 54.89 56.83 56.58 57.12 56.71 57.77 57.93 51.24 52.58 51.81 51.31 50.85 50.00 48.94 49.33 48.13 48.29 44.88 46.98 47.16 51.01 52.09 52.34 52.07 52.33 50.83 50.57 51.01
63.57 62.32 62.36 57.84 59.59 57.88 55.90 57.90 56.94 54.89 57.53 56.61 56.46 57.57 56.03 56.08 56.04 55.23 58.31 57.42 56.14 58.38 56.74 57.45 52.33 52.11 49.90 51.98 50.30 48.32 49.85 49.30 49.40 49.65 49.30 49.25 48.65 54.16 54.22 53.32 51.96 50.65 50.51 49.89 50.45
68.06 67.27 61.75 56.28 57.19 56.85 57.21 58.02 56.95 58.27 59.37 59.65 58.14 57.56 57.31 57.19 58.62 59.95 61.29 61.21 59.45 56.92 56.23 55.24 53.71 50.89 46.89 51.58 51.05 45.56 50.55 50.41 49.78 50.87 50.26 46.42 50.17 52.60 51.16 50.98 49.66 49.65 50.03 50.48 50.98
MSLP
1015.84 1015.60 1015.40 1015.12 1014.80 1014.55 1014.27 1014.00 1013.93 1013.78 1013.52 1013.34 1013.23 1013.14 1012.90 1012.70 1012.09 1011.62 1009.48 1007.85 1008.02 1008.23 1009.00 1007.64 1007.31 1006.37 1005.76 1005.08 1006.30 1007.05 1007.16 1005.97 1006.16 1006.53 1007.52 1008.09 1008.65 1009.57 1009.88 1010.73 1012.11 1012.97 1013.47 1015.58 1016.38
1015.88 1015.54 1015.21 1015.00 1014.63 1014.29 1014.00 1013.86 1013.75 1013.53 1013.40 1013.23 1013.17 1013.05 1012.90 1012.65 1011.37 1009.21 1008.04 1007.74 1007.93 1008.31 1008.33 1006.69 1005.43 1005.02 1005.08 1006.61 1007.13 1007.57 1007.84 1006.51 1005.51 1006.40 1007.07 1007.64 1008.55 1009.35 1011.10 1012.82 1014.03 1014.22 1015.56 1016.14 1016.56
1015.89 1015.58 1015.25 1014.98 1014.62 1014.39 1014.10 1013.88 1013.70 1013.46 1013.27 1013.11 1013.10 1012.99 1012.80 1012.39 1010.41 1007.17 1007.63 1007.98 1008.00 1008.06 1007.25 1005.78 1004.97 1004.60 1005.50 1006.16 1007.38 1007.28 1005.94 1005.86 1005.98 1006.33 1006.50 1007.33 1008.58 1009.43 1010.51 1011.84 1013.11 1014.55 1015.96 1016.70 1017.27
1015.88 1015.56 1015.30 1015.00 1014.58 1014.33 1014.05 1013.72 1013.43 1013.32 1013.18 1013.03 1012.98 1012.81 1012.62 1011.64 1008.57 1007.05 1007.77 1008.10 1008.18 1007.80 1007.23 1005.79 1004.79 1004.96 1005.06 1004.82 1005.76 1005.48 1005.63 1006.15 1006.54 1006.66 1006.87 1008.25 1008.77 1010.35 1011.28 1012.29 1013.45 1014.98 1016.24 1017.24 1018.24
1015.82 1015.52 1015.22 1015.06 1014.67 1014.36 1014.01 1013.61 1013.31 1013.26 1013.05 1012.89 1012.80 1012.58 1012.18 1010.04 1007.12 1007.50 1008.05 1008.34 1008.24 1007.58 1006.50 1004.85 1004.21 1004.72 1004.37 1004.35 1005.59 1007.13 1006.44 1006.87 1006.87 1006.94 1007.54 1008.15 1009.42 1010.92 1012.59 1013.66 1014.51 1015.84 1017.07 1018.04 1019.06
1015.73 1015.42 1015.16 1014.82 1014.40 1014.10 1013.79 1013.44 1013.15 1012.99 1012.86 1012.71 1012.63 1012.61 1011.23 1008.18 1006.38 1007.03 1007.33 1007.76 1007.04 1006.56 1005.25 1004.31 1003.85 1003.71 1003.78 1004.66 1005.57 1007.03 1007.52 1007.98 1008.08 1007.74 1007.88 1008.45 1010.17 1011.03 1013.14 1014.39 1015.42 1016.74 1017.73 1018.64 1019.57
1015.62 1015.35 1015.05 1014.75 1014.39 1013.98 1013.64 1013.26 1012.97 1012.71 1012.67 1012.50 1012.42 1011.96 1009.55 1006.75 1005.94 1006.48 1006.33 1006.49 1006.14 1005.24 1004.39 1004.00 1003.85 1004.01 1004.36 1006.37 1007.56 1008.91 1009.91 1010.79 1010.36 1009.43 1008.27 1008.16 1009.79 1011.45 1013.08 1014.25 1015.62 1016.85 1017.96 1018.98 1019.81
1015.48 1015.25 1014.95 1014.62 1014.28 1013.96 1013.55 1013.09 1012.68 1012.31 1012.28 1012.28 1012.28 1011.12 1008.06 1005.57 1005.50 1005.71 1005.72 1005.39 1005.14 1005.03 1004.79 1004.29 1004.31 1005.72 1006.83 1009.32 1009.33 1011.85 1013.57 1015.07 1012.60 1010.21 1008.63 1008.83 1010.15 1011.79 1012.79 1014.18 1015.23 1016.39 1017.62 1018.77 1019.55
1015.38 1015.12 1014.86 1014.50 1014.14 1013.85 1013.45 1012.94 1012.37 1011.94 1011.94 1012.03 1011.83 1010.13 1006.85 1006.04 1005.54 1005.25 1005.32 1004.94 1004.98 1004.96 1004.67 1004.70 1004.84 1006.62 1009.08 1010.50 1011.42 1010.49 1010.80 1012.45 1011.63 1010.09 1008.53 1008.66 1010.14 1011.81 1012.51 1013.67 1014.74 1015.78 1016.78 1017.95 1018.87
1015.21 1014.97 1014.68 1014.41 1014.02 1013.76 1013.32 1012.93 1012.18 1012.06 1011.63 1011.03 1009.88 1008.76 1006.15 1005.33 1004.85 1004.97 1005.06 1005.18 1004.81 1004.52 1004.38 1004.48 1005.33 1006.21 1007.59 1009.82 1009.57 1006.57 1006.66 1009.00 1009.25 1007.87 1007.85 1008.01 1010.33 1011.87 1012.21 1013.35 1014.72 1015.38 1015.92 1016.71 1017.40
1015.07 1014.84 1014.49 1014.18 1013.89 1013.73 1012.94 1011.88 1011.83 1010.95 1009.55 1007.94 1006.44 1005.42 1004.21 1004.34 1004.50 1004.86 1005.02 1005.05 1004.77 1004.45 1004.04 1003.46 1004.68 1005.61 1005.74 1005.88 1005.82 1005.17 1005.70 1007.40 1009.35 1007.99 1007.01 1007.38 1009.30 1011.03 1011.77 1012.80 1014.08 1014.87 1015.16 1015.55 1015.83
1014.96 1014.68 1014.37 1013.98 1013.66 1013.53 1013.37 1009.85 1007.13 1006.92 1007.05 1006.30 1005.47 1004.71 1003.93 1003.64 1004.34 1004.53 1004.77 1005.10 1004.62 1004.24 1003.61 1003.11 1002.92 1004.13 1004.18 1004.25 1004.22 1004.89 1005.39 1006.89 1007.41 1007.15 1006.50 1006.87 1008.42 1011.41 1011.00 1012.55 1012.71 1013.78 1014.16 1014.41 1014.50
1014.79 1014.49 1014.21 1013.77 1013.30 1012.86 1010.17 1007.50 1006.43 1006.06 1005.71 1004.48 1003.61 1003.15 1002.47 1003.61 1003.77 1003.82 1004.52 1004.62 1004.56 1004.10 1003.29 1002.93 1002.52 1002.73 1003.06 1003.10 1004.16 1005.13 1005.40 1005.24 1004.96 1004.72 1005.11 1006.47 1009.90 1011.20 1013.04 1011.86 1012.63 1013.03 1013.09 1013.49 1013.70
1014.60 1014.24 1013.96 1013.50 1013.25 1008.91 1007.55 1006.26 1006.26 1006.03 1005.23 1003.47 1003.24 1002.80 1002.91 1002.97 1003.20 1003.11 1003.77 1004.50 1004.31 1003.70 1003.11 1002.72 1002.34 1002.40 1002.79 1002.91 1003.88 1004.41 1004.04 1004.14 1004.42 1004.54 1004.82 1006.72 1009.04 1012.92 1010.80 1012.03 1012.46 1012.79 1013.01 1013.02 1013.90
1014.36 1013.96 1013.70 1013.72 1011.71 1007.51 1006.06 1005.81 1005.95 1006.13 1004.42 1002.33 1002.40 1002.47 1002.21 1002.96 1003.09 1002.75 1002.91 1003.52 1003.66 1003.34 1003.18 1002.69 1002.45 1002.46 1002.73 1003.06 1003.65 1003.77 1003.97 1004.17 1003.98 1004.35 1005.06 1006.63 1011.06 1013.66 1013.82 1013.09 1012.82 1013.00 1013.25 1013.21 1013.75
1014.06 1013.70 1013.37 1011.91 1011.09 1007.20 1005.55 1005.95 1006.23 1005.97 1004.23 1002.48 1002.43 1002.47 1002.55 1002.87 1002.92 1002.62 1002.77 1003.20 1003.37 1003.77 1003.43 1003.02 1002.78 1002.98 1003.60 1004.11 1004.00 1004.21 1004.14 1003.78 1003.51 1003.53 1005.52 1008.42 1010.64 1013.12 1013.76 1012.93 1013.26 1013.66 1013.46 1013.35 1013.65
1013.72 1013.44 1013.37 1011.04 1007.46 1005.56 1005.62 1005.74 1005.69 1004.99 1005.58 1003.15 1002.46 1002.74 1002.77 1002.88 1002.93 1002.89 1002.79 1002.90 1003.31 1003.59 1003.32 1003.12 1003.29 1003.74 1004.64 1005.75 1004.13 1003.74 1004.01 1003.59 1003.44 1004.06 1005.44 1008.21 1010.40 1012.66 1012.70 1013.09 1013.10 1013.62 1013.76 1013.66 1014.04
1013.25 1013.04 1010.95 1009.33 1006.99 1006.18 1005.95 1005.78 1005.09 1004.14 1004.10 1002.65 1002.48 1002.92 1002.99 1003.20 1003.11 1002.88 1002.81 1003.17 1003.48 1003.46 1003.19 1003.18 1003.38 1004.37 1004.90 1005.00 1004.68 1004.68 1004.55 1004.38 1004.46 1005.00 1005.95 1007.46 1011.26 1013.84 1014.09 1013.55 1013.48 1013.63 1013.75 1013.82 1014.11
1012.65 1010.93 1009.40 1007.33 1007.17 1006.61 1006.12 1005.21 1004.49 1005.40 1005.87 1004.01 1002.54 1002.72 1002.92 1002.83 1002.57 1002.78 1003.04 1003.17 1003.53 1004.14 1004.09 1004.01 1004.24 1004.80 1005.06 1004.94 1004.98 1004.66 1005.09 1005.34 1005.56 1006.18 1006.66 1008.84 1012.49 1013.78 1013.38 1013.56 1013.28 1013.44 1013.71 1014.48 1014.64
1011.70 1008.93 1006.76 1005.87 1006.17 1006.38 1005.95 1005.24 1004.95 1007.11 1006.74 1004.23 1002.86 1002.88 1003.18 1003.25 1003.37 1003.43 1003.54 1004.13 1004.14 1004.52 1004.89 1004.67 1004.47 1004.02 1004.98 1005.09 1004.31 1005.08 1005.73 1005.73 1005.68 1006.24 1006.91 1008.04 1010.71 1012.77 1013.68 1013.29 1013.36 1013.77 1014.27 1014.56 1014.73
1011.34 1007.45 1004.80 1005.33 1006.15 1005.98 1005.22 1004.42 1005.30 1006.01 1005.34 1003.36 1003.02 1003.35 1003.82 1004.58 1005.01 1004.97 1005.00 1006.66 1006.06 1005.67 1005.56 1005.23 1005.40 1004.94 1004.59 1004.54 1004.72 1005.24 1005.67 1006.06 1006.87 1007.58 1007.75 1009.02 1011.59 1011.82 1012.63 1012.98 1013.56 1014.29 1014.70 1014.96 1014.97
1009.82 1006.47 1004.99 1005.06 1005.59 1005.16 1004.46 1003.80 1004.53 1003.93 1003.92 1003.28 1003.63 1006.94 1006.12 1006.48 1007.78 1006.56 1007.83 1009.34 1008.17 1007.22 1006.09 1006.78 1006.75 1006.14 1005.48 1005.54 1006.17 1006.40 1006.87 1007.44 1007.79 1008.09 1008.60 1009.20 1011.26 1012.48 1013.09 1013.96 1014.42 1014.83 1015.25 1015.17 1015.15
1009.08 1005.56 1004.78 1004.87 1004.59 1004.07 1003.77 1003.86 1003.95 1003.72 1003.64 1003.29 1003.85 1004.59 1004.70 1005.49 1006.33 1005.52 1006.34 1007.51 1007.51 1007.28 1008.04 1007.88 1007.22 1006.89 1005.59 1006.26 1006.84 1006.88 1007.06 1007.97 1008.39 1008.91 1008.94 1009.54 1012.20 1012.56 1013.60 1014.56 1014.94 1015.18 1015.12 1015.06 1015.21
1009.23 1005.12 1004.78 1004.76 1004.47 1004.40 1004.77 1003.93 1004.39 1003.91 1004.01 1004.35 1004.62 1004.25 1004.85 1005.19 1005.45 1005.69 1006.15 1007.11 1007.49 1008.17 1008.75 1008.89 1008.34 1007.90 1007.19 1006.78 1007.07 1007.01 1007.17 1007.99 1008.59 1009.05 1009.20 1010.04 1011.56 1012.92 1013.57 1014.13 1014.56 1014.96 1015.04 1015.16 1015.29
1008.66 1004.66 1003.57 1003.93 1004.27 1004.39 1006.62 1006.19 1004.35 1004.48 1004.42 1004.57 1004.67 1004.83 1005.29 1005.42 1005.34 1005.29 1005.80 1006.95 1007.76 1008.39 1008.61 1008.95 1008.69 1008.06 1007.57 1007.67 1007.58 1007.52 1007.68 1008.11 1008.66 1009.21 1009.76 1010.15 1010.82 1012.28 1013.39 1013.75 1014.00 1014.58 1015.04 1015.24 1015.27
1008.04 1005.53 1004.24 1003.61 1003.94 1003.85 1004.76 1005.44 1004.69 1005.97 1004.81 1004.37 1004.95 1005.27 1005.36 1005.77 1006.22 1006.05 1006.00 1005.99 1006.67 1007.82 1008.35 1009.20 1009.21 1008.82 1008.34 1007.77 1008.04 1007.88 1007.86 1008.53 1008.93 1009.26 1009.90 1010.47 1011.41 1012.61 1013.00 1013.20 1014.01 1014.74 1015.06 1015.26 1015.59
1007.08 1005.88 1005.42 1004.53 1004.46 1005.04 1005.47 1005.55 1005.89 1004.40 1004.64 1004.64 1005.05 1005.01 1005.66 1006.41 1006.43 1006.39 1006.66 1006.87 1007.29 1007.69 1008.39 1009.32 1009.41 1009.14 1008.44 1008.39 1008.31 1008.04 1007.25 1007.93 1008.60 1009.07 1009.78 1010.71 1011.95 1012.68 1013.20 1014.00 1014.49 1014.86 1015.23 1015.57 1015.88
Wind_Speed
12 12 11 10 10 9 9 9 9 9 9 10 10 9 9 11 14 7 12 3 4 15 2 12 17 17 17 19 17 10 5 5 10 12 13 10 11 5 3 13 20 14 19 21 16
13 13 13 12 11 12 11 11 10 10 10 9 9 8 9 9 8 15 8 11 12 14 10 17 15 11 6 17 8 9 1 5 18 13 13 9 10 7 10 5 11 17 18 17 15
13 13 13 12 11 10 11 10 10 10 10 9 9 8 8 9 9 10 10 6 11 13 17 18 13 9 6 10 10 11 6 14 13 8 14 10 11 4 14 2 13 19 16 12 14
14 13 12 12 12 11 11 11 10 10 10 10 8 8 7 6 3 6 9 10 7 12 14 19 13 1 13 11 11 6 9 12 9 7 4 13 13 11 14 13 16 16 17 14 14
14 14 13 12 11 11 11 12 11 10 10 9 9 8 7 9 7 9 7 8 10 12 16 16 8 5 6 11 15 8 5 9 8 7 9 7 13 12 12 15 15 17 14 14 13
13 14 13 13 13 12 12 12 12 11 10 9 8 7 6 12 11 14 13 13 12 16 21 12 15 1 5 6 5 11 6 7 5 9 9 13 12 10 11 19 17 16 15 12 12
11 14 14 13 13 13 13 13 13 13 11 9 8 7 7 14 11 13 14 13 15 14 14 5 13 15 10 27 27 30 22 23 17 6 6 7 10 11 13 16 16 13 12 11 12
12 14 14 14 13 13 14 14 15 14 10 7 6 7 8 5 5 14 12 13 6 9 12 7 9 15 20 12 14 12 12 6 21 22 7 4 12 13 15 14 13 13 11 10 9
14 14 14 14 14 14 14 16 14 9 4 7 6 6 15 4 11 13 12 9 6 11 10 7 9 14 10 14 13 14 18 24 15 19 9 10 13 13 12 12 12 11 11 12 11
14 14 14 14 14 14 15 10 9 3 5 7 10 8 9 11 13 12 9 8 9 10 11 11 4 3 5 10 17 15 12 13 13 9 11 9 13 11 10 10 14 12 11 11 13
15 15 15 13 13 12 14 5 6 6 8 12 15 19 16 14 14 11 10 9 11 14 14 16 12 11 8 17 20 12 11 13 13 11 7 6 17 15 14 8 6 11 15 14 10
15 15 15 13 12 10 7 9 7 6 8 21 21 22 21 15 11 14 11 10 14 14 19 11 13 9 8 20 8 20 12 6 16 23 7 9 10 8 14 11 6 7 9 7 8
14 16 15 14 13 6 12 16 6 8 7 18 15 21 16 15 16 18 14 14 16 18 15 13 13 6 9 8 17 14 25 7 13 16 16 4 8 11 12 11 8 7 11 8 5
15 16 15 15 4 11 15 4 7 4 9 14 16 15 9 13 18 15 16 14 21 16 18 10 15 2 10 4 6 11 14 18 20 18 15 8 7 5 5 8 5 8 4 6 3
16 16 14 6 13 9 6 1 2 3 7 14 18 12 12 17 15 15 17 18 16 18 17 14 15 10 13 12 10 15 16 18 19 14 19 1 8 1 3 7 7 7 9 9 8
17 16 16 6 7 17 4 6 3 8 6 7 14 17 16 15 16 17 15 15 14 15 20 19 19 5 7 18 15 11 14 19 21 12 11 10 10 10 5 8 10 6 9 10 11
17 15 8 9 8 2 5 7 8 13 8 15 19 16 14 14 13 13 20 13 12 13 16 18 15 7 8 13 24 4 15 13 13 10 7 15 4 6 9 9 9 7 6 8 12
17 14 11 9 11 11 6 9 15 18 6 8 12 12 14 17 17 21 12 10 15 19 13 13 14 5 13 17 9 14 13 9 17 12 16 7 8 2 10 7 7 4 8 7 12
19 6 6 9 14 8 8 11 12 7 13 16 10 10 14 19 17 16 14 11 3 9 9 11 12 10 10 6 9 10 11 16 11 15 16 6 7 10 7 6 6 5 5 13 9
6 8 10 14 7 7 10 15 17 11 12 30 11 14 15 16 8 15 12 8 12 3 8 7 14 6 12 8 14 3 6 8 6 10 13 3 6 8 11 5 2 6 8 4 4
5 7 9 10 6 7 10 12 6 24 31 10 12 4 5 5 12 23 8 15 17 12 6 9 6 11 7 6 6 8 10 9 7 9 11 6 3 11 7 5 7 10 8 8 7
6 9 9 9 8 9 13 10 9 7 2 6 5 16 18 13 16 27 9 15 8 8 7 5 4 8 15 11 9 5 6 6 6 9 12 11 6 8 10 11 8 7 1 8 8
6 6 7 9 11 13 17 5 1 5 0 9 5 7 11 10 6 9 10 8 5 9 7 10 4 9 11 8 5 5 4 3 6 6 11 6 3 8 11 6 4 5 7 7 8
7 4 5 8 12 15 14 10 6 7 7 8 3 7 8 11 10 6 6 7 8 9 6 5 5 9 10 10 5 6 4 4 3 7 10 9 13 7 4 2 1 2 3 7 7
6 5 2 9 12 13 20 30 14 8 3 3 3 5 4 4 8 8 9 9 8 6 3 5 7 7 10 7 7 7 5 5 6 9 5 13 7 10 4 5 4 6 6 7 7
7 10 7 8 6 5 6 15 18 11 14 9 6 6 2 5 7 10 18 3 2 8 3 2 6 5 11 8 5 9 7 3 8 3 8 9 5 7 3 1 5 6 6 8 10
7 9 6 7 8 11 4 7 21 10 11 8 4 1 7 5 7 6 6 6 5 4 3 2 5 7 8 6 7 9 7 7 4 5 4 6 6 7 7 9 7 3 4 8 10
Wind_Direction
341 339 338 336 335 335 331 330 328 322 316 312 313 308 310 308 296 229 232 219 185 170 218 238 220 241 241 253 140 158 264 49 84 99 114 132 113 60 127 91 61 47 119 138 145
339 339 337 336 334 339 337 331 326 323 314 313 304 309 315 325 263 245 155 149 168 150 219 232 222 225 278 14 29 358 63 293 81 99 127 146 107 132 96 113 114 96 115 138 145
337 336 336 334 330 332 326 321 318 315 311 307 303 311 309 300 261 218 168 184 174 185 250 287 302 278 56 179 181 197 197 74 58 107 125 118 106 111 130 112 136 132 136 141 126
336 335 335 330 325 324 319 315 318 313 305 301 306 308 308 242 258 97 143 176 194 219 253 267 253 75 291 211 165 109 54 92 99 80 99 130 108 74 55 67 103 134 136 140 125
336 332 331 325 317 316 314 309 309 304 300 299 311 309 272 220 257 127 149 173 199 221 246 250 250 264 291 77 59 24 59 99 128 112 83 95 55 98 89 83 106 117 128 134 145
334 329 327 323 318 317 312 305 301 298 295 296 296 306 249 260 106 151 169 169 222 223 258 251 275 271 289 6 340 200 208 117 132 130 147 136 138 162 117 115 116 125 134 140 140
330 327 327 319 315 311 307 301 296 294 291 282 280 272 257 267 148 169 183 193 217 254 294 342 332 307 334 13 35 33 32 5 336 217 141 167 153 105 137 129 131 129 142 155 167
331 328 325 318 314 308 306 301 299 294 280 254 251 250 265 193 185 190 193 221 238 262 280 337 314 33 59 35 13 71 96 276 273 266 130 206 146 135 145 142 150 160 155 168 179
330 325 324 316 312 310 308 305 297 299 210 181 218 236 235 95 211 198 209 240 237 249 266 298 286 95 58 98 293 209 199 209 221 227 147 217 117 156 160 160 164 174 166 179 190
329 324 323 319 314 313 307 285 307 288 217 205 265 223 223 221 189 195 218 254 269 254 256 233 119 65 128 147 248 349 348 82 109 186 233 149 128 160 154 158 173 181 182 185 193
329 324 321 316 311 318 315 205 206 194 223 225 187 215 181 211 174 201 214 234 252 259 259 246 155 182 315 256 247 309 11 52 329 269 260 124 161 158 150 169 198 176 179 194 202
327 323 319 313 308 313 279 252 304 33 234 226 255 214 236 162 181 207 193 227 249 252 252 255 264 159 224 259 268 3 359 114 229 248 231 292 145 161 143 176 186 187 179 205 199
323 322 319 313 315 268 235 248 329 322 259 218 248 204 195 171 205 199 194 228 254 269 279 275 286 182 258 341 34 35 291 282 288 313 229 131 110 130 204 174 183 150 143 190 208
322 321 319 317 285 230 218 235 256 302 267 221 205 220 211 199 210 210 187 228 257 260 262 309 294 301 280 3 8 263 315 336 321 313 305 173 302 41 7 119 105 95 172 194 43
322 319 315 313 317 282 82 300 339 218 258 175 193 201 221 202 225 224 201 214 256 278 291 281 289 320 327 346 346 320 339 307 288 285 292 147 47 45 259 142 141 109 90 94 115
322 317 319 194 226 260 285 112 223 220 258 156 182 206 203 214 228 249 202 224 254 282 272 286 287 262 6 340 302 314 303 300 287 250 274 144 142 186 189 159 120 102 76 51 35
321 310 288 312 249 226 310 220 226 236 67 255 161 200 204 228 235 239 248 221 242 235 249 253 301 335 39 337 293 292 304 315 320 314 284 177 157 183 156 85 94 105 91 83 79
317 304 219 244 293 287 281 247 252 227 197 269 176 197 205 216 220 236 226 237 231 240 270 304 313 356 293 242 307 302 311 315 307 309 323 281 81 140 37 125 120 124 96 74 56
312 202 241 240 227 271 265 246 238 101 318 284 192 191 207 219 227 204 219 263 117 241 295 313 292 232 240 303 310 329 305 340 304 288 276 107 101 174 161 143 170 109 82 75 44
302 251 223 214 185 248 259 264 290 63 305 268 197 198 209 233 303 202 229 35 359 113 325 296 298 300 165 218 277 196 316 311 300 297 297 175 138 155 207 166 105 91 70 56 37
251 236 176 165 185 237 251 262 28 197 211 279 306 300 354 35 335 309 66 353 320 310 311 310 316 300 266 307 338 322 320 331 340 290 299 351 97 153 139 97 75 64 42 16 344
263 261 153 182 211 235 241 266 183 238 276 275 18 91 285 102 293 255 115 185 278 279 318 69 328 295 295 84 37 346 337 345 317 317 322 305 90 89 83 70 33 77 24 351 337
267 232 156 193 223 228 226 258 297 219 297 14 19 38 14 127 224 14 79 78 42 40 17 356 331 315 286 60 2 292 44 312 300 278 274 349 307 157 87 74 64 357 347 316 21
274 196 155 217 256 286 340 192 169 127 105 121 25 17 8 334 329 327 108 75 68 69 337 322 299 270 286 358 4 258 165 307 268 276 344 52 131 122 117 57 194 339 316 351 341
248 308 113 196 223 246 103 270 179 174 167 112 359 241 321 322 322 326 120 135 159 146 186 4 287 324 294 339 319 329 312 324 345 326 327 335 351 135 141 6 9 33 353 339 331
284 344 341 275 319 268 207 144 239 88 246 171 187 292 338 23 351 352 353 64 197 167 72 53 296 319 300 255 268 300 290 237 262 241 321 326 64 31 339 309 30 3 346 346 355
354 320 270 291 240 263 308 343 312 162 34 77 164 85 52 23 344 350 20 19 31 14 108 286 327 301 313 1 300 268 286 194 302 322 356 323 32 360 7 6 352 317 331 0 343